Location: Unspecified
(0.0000°N, 0.0000°E)
Time: 09:52:57
(UTC+00:00)

Vanguard 2 - Pass Details

Date: 20 October 2021
Orbit: 554 x 2936 km, 32.9° (Epoch: 06 December)

Event Time Altitude Azimuth Distance (km) Brightness Sun altitude
Rises 22:05:31 0° 231° (SW) 6,692 12.7 -63.1°
Reaches altitude 10° 22:09:54 10° 229° (SW) 5,750 12.2 -64.1°
Enters shadow 22:18:34 36° 223° (SW) 3,958 11.0 -66.1°
Maximum altitude 22:28:01 77° 145° (SE) 2,722 - -68.2°
Drops below altitude 10° 22:41:35 10° 60° (ENE) 4,479 - -71.0°
Sets 22:44:32 0° 59° (ENE) 5,207 - -71.6°
